Time,TemperatureF,DewpointF,PressureIn,WindDirection,WindDirectionDegrees,WindSpeedMPH,WindSpeedGustMPH,Humidity,HourlyPrecipIn,Conditions,Clouds,dailyrainin,SoftwareType,DateUTC
2013-03-18 00:00:00,29.9,26.8,29.90,ESE,122,13.0,23.0,88,0.00,,OVC019,0.00,VWS V14.01,2013-03-18 05:00:00,
2013-03-18 00:05:00,30.0,26.9,29.90,SE,134,17.0,21.0,88,0.00,,OVC019,0.00,VWS V14.01,2013-03-18 05:05:00,
2013-03-18 00:10:00,30.0,26.9,29.89,SE,133,15.0,21.0,88,0.00,,OVC019,0.00,VWS V14.01,2013-03-18 05:10:00,
2013-03-18 00:15:00,30.1,27.0,29.89,SE,142,15.0,21.0,88,0.00,,OVC019,0.00,VWS V14.01,2013-03-18 05:15:00,
2013-03-18 00:20:00,30.0,26.9,29.89,ESE,123,14.0,21.0,88,0.00,,OVC019,0.00,VWS V14.01,2013-03-18 05:20:00,
2013-03-18 00:25:00,30.0,27.2,29.88,SE,132,15.0,21.0,89,0.00,,OVC019,0.00,VWS V14.01,2013-03-18 05:25:00,
2013-03-18 00:30:00,30.0,27.2,29.88,SE,134,15.0,21.0,89,0.00,,OVC019,0.00,VWS V14.01,2013-03-18 05:30:00,
2013-03-18 00:35:00,29.9,27.3,29.88,SE,139,18.0,19.0,90,0.00,,OVC019,0.00,VWS V14.01,2013-03-18 05:35:00,
2013-03-18 00:40:00,29.9,27.3,29.88,SE,124,13.0,19.0,90,0.00,,OVC019,0.00,VWS V14.01,2013-03-18 05:40:00,
2013-03-18 00:45:00,29.8,27.5,29.88,ESE,121,12.0,20.0,91,0.00,,OVC019,0.00,VWS V14.01,2013-03-18 05:45:00,
2013-03-18 00:50:00,29.7,27.4,29.87,SE,146,13.0,20.0,91,0.00,,OVC019,0.00,VWS V14.01,2013-03-18 05:50:00,
2013-03-18 00:55:00,29.6,27.6,29.87,SE,136,13.0,20.0,92,0.00,,,0.00,VWS V14.01,2013-03-18 05:55:00,
2013-03-18 01:00:00,29.6,27.6,29.87,SE,132,15.0,20.0,92,0.00,,,0.00,VWS V14.01,2013-03-18 06:00:00,
2013-03-18 01:05:00,29.6,27.6,29.86,SE,131,14.0,19.0,92,0.00,,,0.00,VWS V14.01,2013-03-18 06:05:00,
2013-03-18 01:10:00,29.5,27.7,29.86,SE,125,14.0,19.0,93,0.00,,,0.00,VWS V14.01,2013-03-18 06:10:00,
2013-03-18 01:15:00,29.4,27.6,29.85,ESE,122,14.0,19.0,93,0.00,,,0.00,VWS V14.01,2013-03-18 06:15:00,
2013-03-18 01:20:00,29.4,27.9,29.85,SE,129,14.0,19.0,94,0.00,,,0.00,VWS V14.01,2013-03-18 06:20:00,
2013-03-18 01:25:00,29.3,27.8,29.85,ESE,111,14.0,19.0,94,0.00,,,0.00,VWS V14.01,2013-03-18 06:25:00,
2013-03-18 01:30:00,29.3,27.8,29.85,SE,126,12.0,19.0,94,0.00,,,0.00,VWS V14.01,2013-03-18 06:30:00,
2013-03-18 01:35:00,29.3,27.8,29.84,ESE,111,14.0,17.0,94,0.00,,,0.00,VWS V14.01,2013-03-18 06:35:00,
2013-03-18 01:40:00,29.3,27.8,29.84,SE,138,15.0,18.0,94,0.00,,,0.00,VWS V14.01,2013-03-18 06:40:00,
2013-03-18 01:45:00,29.3,27.8,29.84,SE,129,15.0,18.0,94,0.00,,,0.00,VWS V14.01,2013-03-18 06:45:00,
2013-03-18 01:50:00,29.3,27.8,29.83,SE,132,17.0,18.0,94,0.00,,,0.00,VWS V14.01,2013-03-18 06:50:00,
2013-03-18 01:55:00,29.4,27.9,29.83,ESE,110,17.0,19.0,94,0.00,,,0.00,VWS V14.01,2013-03-18 06:55:00,
2013-03-18 02:00:00,29.4,27.9,29.83,SE,134,13.0,19.0,94,0.00,,,0.00,VWS V14.01,2013-03-18 07:00:00,
2013-03-18 02:05:00,29.4,27.9,29.83,SE,128,17.0,19.0,94,0.00,,,0.00,VWS V14.01,2013-03-18 07:05:00,
2013-03-18 02:10:00,29.3,27.8,29.82,SE,135,17.0,20.0,94,0.00,,,0.00,VWS V14.01,2013-03-18 07:10:00,
2013-03-18 02:15:00,29.3,27.8,29.82,SE,132,17.0,20.0,94,0.00,,,0.00,VWS V14.01,2013-03-18 07:15:00,
2013-03-18 02:20:00,29.3,27.8,29.81,SE,135,14.0,20.0,94,0.00,,,0.00,VWS V14.01,2013-03-18 07:20:00,
2013-03-18 02:25:00,29.3,27.8,29.81,SE,139,17.0,22.0,94,0.00,,,0.00,VWS V14.01,2013-03-18 07:25:00,
2013-03-18 02:30:00,29.3,27.8,29.81,SE,144,16.0,22.0,94,0.00,,,0.00,VWS V14.01,2013-03-18 07:30:00,
2013-03-18 02:35:00,29.3,27.5,29.81,ESE,118,16.0,20.0,93,0.00,,,0.00,VWS V14.01,2013-03-18 07:35:00,
2013-03-18 02:40:00,29.4,27.6,29.81,SE,125,16.0,20.0,93,0.00,,,0.00,VWS V14.01,2013-03-18 07:40:00,
2013-03-18 02:45:00,29.3,27.5,29.80,SE,128,14.0,22.0,93,0.00,,,0.00,VWS V14.01,2013-03-18 07:45:00,
2013-03-18 02:50:00,29.3,27.5,29.80,SE,134,18.0,22.0,93,0.00,,,0.00,VWS V14.01,2013-03-18 07:50:00,
2013-03-18 02:55:00,29.3,27.5,29.80,SE,132,17.0,22.0,93,0.00,,,0.00,VWS V14.01,2013-03-18 07:55:00,
2013-03-18 03:00:00,29.3,27.5,29.79,SE,132,17.0,22.0,93,0.00,,,0.00,VWS V14.01,2013-03-18 08:00:00,
2013-03-18 03:05:00,29.3,27.5,29.78,ESE,115,17.0,19.0,93,0.00,,,0.00,VWS V14.01,2013-03-18 08:05:00,
2013-03-18 03:10:00,29.3,27.5,29.78,SE,128,14.0,22.0,93,0.00,,,0.00,VWS V14.01,2013-03-18 08:10:00,
2013-03-18 03:15:00,29.3,27.5,29.78,SE,129,17.0,22.0,93,0.00,,,0.00,VWS V14.01,2013-03-18 08:15:00,
2013-03-18 03:20:00,29.3,27.5,29.77,SE,124,16.0,22.0,93,0.00,,,0.00,VWS V14.01,2013-03-18 08:20:00,
2013-03-18 03:25:00,29.2,27.4,29.77,SE,129,16.0,22.0,93,0.00,,,0.00,VWS V14.01,2013-03-18 08:25:00,
2013-03-18 03:30:00,29.2,27.4,29.76,ESE,122,19.0,22.0,93,0.00,,,0.00,VWS V14.01,2013-03-18 08:30:00,
2013-03-18 03:35:00,29.2,27.4,29.76,SE,131,18.0,23.0,93,0.00,,,0.00,VWS V14.01,2013-03-18 08:35:00,
2013-03-18 03:40:00,29.2,27.4,29.75,SE,135,15.0,23.0,93,0.00,,,0.00,VWS V14.01,2013-03-18 08:40:00,
2013-03-18 03:45:00,29.2,27.4,29.75,SE,126,18.0,23.0,93,0.00,,,0.00,VWS V14.01,2013-03-18 08:45:00,
2013-03-18 03:50:00,29.2,27.4,29.75,SE,124,13.0,23.0,93,0.00,,,0.00,VWS V14.01,2013-03-18 08:50:00,
2013-03-18 03:55:00,29.2,27.4,29.75,SE,133,14.0,23.0,93,0.00,,,0.00,VWS V14.01,2013-03-18 08:55:00,
2013-03-18 04:00:00,29.2,27.4,29.75,SE,131,20.0,23.0,93,0.00,,,0.00,VWS V14.01,2013-03-18 09:00:00,
2013-03-18 04:05:00,29.3,27.5,29.75,SE,132,15.0,20.0,93,0.00,,,0.00,VWS V14.01,2013-03-18 09:05:00,
2013-03-18 04:10:00,29.2,27.4,29.75,SE,139,17.0,20.0,93,0.00,,,0.00,VWS V14.01,2013-03-18 09:10:00,
2013-03-18 04:15:00,29.3,27.5,29.75,SSE,154,14.0,20.0,93,0.00,,,0.00,VWS V14.01,2013-03-18 09:15:00,
2013-03-18 04:20:00,29.3,27.5,29.75,SSE,159,13.0,22.0,93,0.00,,,0.00,VWS V14.01,2013-03-18 09:20:00,
2013-03-18 04:25:00,29.2,27.4,29.75,SSE,162,13.0,22.0,93,0.00,,,0.00,VWS V14.01,2013-03-18 09:25:00,
2013-03-18 04:30:00,29.2,27.4,29.74,SSE,155,17.0,22.0,93,0.00,,,0.00,VWS V14.01,2013-03-18 09:30:00,
2013-03-18 04:35:00,29.2,27.7,29.74,SSE,152,11.0,19.0,94,0.00,,,0.00,VWS V14.01,2013-03-18 09:35:00,
2013-03-18 04:40:00,29.2,27.7,29.74,SSE,153,14.0,19.0,94,0.00,,,0.00,VWS V14.01,2013-03-18 09:40:00,
2013-03-18 04:45:00,29.3,27.8,29.75,SSE,150,11.0,19.0,94,0.00,,,0.00,VWS V14.01,2013-03-18 09:45:00,
2013-03-18 04:50:00,29.3,27.8,29.75,SSE,156,17.0,19.0,94,0.00,,,0.00,VWS V14.01,2013-03-18 09:50:00,
2013-03-18 04:55:00,29.3,27.8,29.74,SSE,150,14.0,19.0,94,0.00,,,0.00,VWS V14.01,2013-03-18 09:55:00,
2013-03-18 05:00:00,29.3,27.8,29.75,SE,139,14.0,19.0,94,0.00,,,0.00,VWS V14.01,2013-03-18 10:00:00,
2013-03-18 05:05:00,29.3,27.8,29.75,SSE,152,12.0,15.0,94,0.00,,OVC008,0.00,VWS V14.01,2013-03-18 10:05:00,
2013-03-18 05:10:00,29.3,27.8,29.75,South,171,8.0,15.0,94,0.00,,OVC008,0.00,VWS V14.01,2013-03-18 10:10:00,
2013-03-18 05:15:00,29.4,27.9,29.75,SSE,148,7.0,15.0,94,0.00,,,0.00,VWS V14.01,2013-03-18 10:15:00,
2013-03-18 05:20:00,29.3,28.0,29.75,SSE,154,9.0,15.0,95,0.00,,,0.00,VWS V14.01,2013-03-18 10:20:00,
2013-03-18 05:25:00,29.4,28.1,29.75,South,169,8.0,15.0,95,0.00,,,0.00,VWS V14.01,2013-03-18 10:25:00,
2013-03-18 05:30:00,29.4,28.1,29.76,SSW,213,10.0,15.0,95,0.00,,,0.00,VWS V14.01,2013-03-18 10:30:00,
2013-03-18 05:35:00,29.4,28.1,29.76,SSW,205,6.0,13.0,95,0.00,,,0.00,VWS V14.01,2013-03-18 10:35:00,
2013-03-18 05:40:00,29.4,28.1,29.76,SSE,149,6.0,14.0,95,0.00,,,0.00,VWS V14.01,2013-03-18 10:40:00,
2013-03-18 05:45:00,29.4,28.1,29.76,SW,229,8.0,14.0,95,0.00,,,0.00,VWS V14.01,2013-03-18 10:45:00,
2013-03-18 05:50:00,29.4,28.1,29.75,SSE,167,7.0,14.0,95,0.00,,,0.00,VWS V14.01,2013-03-18 10:50:00,
2013-03-18 05:55:00,29.4,28.4,29.75,SSE,164,9.0,14.0,96,0.00,,,0.00,VWS V14.01,2013-03-18 10:55:00,
2013-03-18 06:00:00,29.3,28.3,29.75,SSE,160,5.0,14.0,96,0.00,,,0.00,VWS V14.01,2013-03-18 11:00:00,
2013-03-18 06:05:00,29.4,28.4,29.74,SSE,158,7.0,10.0,96,0.00,,,0.00,VWS V14.01,2013-03-18 11:05:00,
2013-03-18 06:10:00,29.3,28.3,29.74,SE,141,6.0,12.0,96,0.00,,,0.00,VWS V14.01,2013-03-18 11:10:00,
2013-03-18 06:15:00,29.4,28.4,29.74,SSE,167,8.0,12.0,96,0.00,,,0.00,VWS V14.01,2013-03-18 11:15:00,
2013-03-18 06:20:00,29.4,28.4,29.73,SSE,155,9.0,12.0,96,0.00,,,0.00,VWS V14.01,2013-03-18 11:20:00,
2013-03-18 06:25:00,29.4,28.4,29.73,SSE,164,6.0,12.0,96,0.00,,,0.00,VWS V14.01,2013-03-18 11:25:00,
2013-03-18 06:30:00,29.5,28.5,29.73,SSE,165,8.0,12.0,96,0.00,,,0.00,VWS V14.01,2013-03-18 11:30:00,
2013-03-18 06:35:00,29.5,28.5,29.73,SSW,198,10.0,13.0,96,0.00,,,0.00,VWS V14.01,2013-03-18 11:35:00,
2013-03-18 06:40:00,29.6,28.6,29.72,SSE,154,8.0,13.0,96,0.00,,,0.00,VWS V14.01,2013-03-18 11:40:00,
2013-03-18 06:45:00,29.6,28.6,29.72,SSE,149,7.0,14.0,96,0.00,,,0.00,VWS V14.01,2013-03-18 11:45:00,
2013-03-18 06:50:00,29.6,28.6,29.72,SSE,150,7.0,14.0,96,0.00,,,0.00,VWS V14.01,2013-03-18 11:50:00,
2013-03-18 06:55:00,29.6,28.6,29.72,SE,128,9.0,14.0,96,0.00,,,0.00,VWS V14.01,2013-03-18 11:55:00,
2013-03-18 07:00:00,29.6,28.6,29.71,SSE,159,9.0,14.0,96,0.00,,,0.00,VWS V14.01,2013-03-18 12:00:00,
2013-03-18 07:05:00,29.6,28.6,29.71,SSW,200,9.0,13.0,96,0.00,,,0.00,VWS V14.01,2013-03-18 12:05:00,
2013-03-18 07:10:00,29.6,28.6,29.71,South,184,10.0,13.0,96,0.00,,,0.00,VWS V14.01,2013-03-18 12:10:00,
2013-03-18 07:15:00,29.6,28.6,29.71,South,172,12.0,13.0,96,0.00,,,0.00,VWS V14.01,2013-03-18 12:15:00,
2013-03-18 07:20:00,29.6,28.6,29.71,South,184,10.0,13.0,96,0.00,,,0.00,VWS V14.01,2013-03-18 12:20:00,
2013-03-18 07:25:00,29.6,28.6,29.71,SSE,148,6.0,13.0,96,0.00,,,0.00,VWS V14.01,2013-03-18 12:25:00,
2013-03-18 07:30:00,29.6,28.6,29.71,SSE,161,10.0,14.0,96,0.00,,,0.00,VWS V14.01,2013-03-18 12:30:00,
2013-03-18 07:35:00,29.6,28.6,29.70,SSE,155,8.0,15.0,96,0.00,,,0.00,VWS V14.01,2013-03-18 12:35:00,
2013-03-18 07:40:00,29.6,28.6,29.70,SSE,158,12.0,15.0,96,0.00,,,0.00,VWS V14.01,2013-03-18 12:40:00,
2013-03-18 07:45:00,29.6,28.6,29.70,South,176,10.0,15.0,96,0.00,,,0.00,VWS V14.01,2013-03-18 12:45:00,
2013-03-18 07:50:00,29.6,28.6,29.70,SSE,166,3.0,15.0,96,0.00,,,0.00,VWS V14.01,2013-03-18 12:50:00,
2013-03-18 07:55:00,29.7,28.7,29.70,South,186,6.0,15.0,96,0.00,,,0.00,VWS V14.01,2013-03-18 12:55:00,
2013-03-18 08:00:00,29.7,28.7,29.69,South,181,8.0,15.0,96,0.00,,,0.00,VWS V14.01,2013-03-18 13:00:00,
2013-03-18 08:05:00,29.7,28.7,29.69,South,177,7.0,11.0,96,0.00,,,0.00,VWS V14.01,2013-03-18 13:05:00,
2013-03-18 08:10:00,29.7,28.7,29.68,SE,146,10.0,11.0,96,0.00,,,0.00,VWS V14.01,2013-03-18 13:10:00,
2013-03-18 08:15:00,29.7,28.7,29.69,SSW,200,12.0,13.0,96,0.00,,,0.00,VWS V14.01,2013-03-18 13:15:00,
2013-03-18 08:20:00,29.8,28.8,29.69,SE,144,9.0,14.0,96,0.00,,,0.00,VWS V14.01,2013-03-18 13:20:00,
2013-03-18 08:25:00,29.8,28.8,29.69,SSW,204,11.0,14.0,96,0.00,,,0.00,VWS V14.01,2013-03-18 13:25:00,
2013-03-18 08:30:00,29.9,28.9,29.69,SSW,205,13.0,16.0,96,0.00,,,0.00,VWS V14.01,2013-03-18 13:30:00,
2013-03-18 08:35:00,30.0,29.0,29.68,SSE,162,13.0,19.0,96,0.00,,,0.00,VWS V14.01,2013-03-18 13:35:00,
2013-03-18 08:40:00,30.1,29.1,29.68,SSW,212,11.0,19.0,96,0.00,,,0.00,VWS V14.01,2013-03-18 13:40:00,
2013-03-18 08:45:00,30.2,29.2,29.68,SSW,197,13.0,19.0,96,0.00,,,0.00,VWS V14.01,2013-03-18 13:45:00,
2013-03-18 08:50:00,30.4,29.4,29.68,SSE,151,10.0,19.0,96,0.00,,,0.00,VWS V14.01,2013-03-18 13:50:00,
2013-03-18 08:55:00,30.5,29.5,29.67,SSW,203,10.0,19.0,96,0.00,,,0.00,VWS V14.01,2013-03-18 13:55:00,
2013-03-18 09:00:00,30.5,29.5,29.67,SSW,212,8.0,19.0,96,0.00,,,0.00,VWS V14.01,2013-03-18 14:00:00,
2013-03-18 09:05:00,30.6,29.6,29.67,SSW,212,5.0,15.0,96,0.00,,,0.00,VWS V14.01,2013-03-18 14:05:00,
2013-03-18 09:10:00,30.8,29.8,29.67,SSW,200,7.0,15.0,96,0.00,,,0.00,VWS V14.01,2013-03-18 14:10:00,
2013-03-18 09:15:00,30.9,29.9,29.67,SSW,211,7.0,15.0,96,0.00,,,0.00,VWS V14.01,2013-03-18 14:15:00,
2013-03-18 09:20:00,31.1,30.1,29.67,WSW,245,13.0,20.0,96,0.00,,,0.00,VWS V14.01,2013-03-18 14:20:00,
2013-03-18 09:25:00,31.4,30.6,29.67,West,272,11.0,20.0,97,0.00,,,0.00,VWS V14.01,2013-03-18 14:25:00,
2013-03-18 09:30:00,31.2,29.4,29.67,West,273,8.0,20.0,93,0.00,,,0.00,VWS V14.01,2013-03-18 14:30:00,
2013-03-18 09:35:00,30.7,28.7,29.67,WNW,284,8.0,18.0,92,0.00,,,0.00,VWS V14.01,2013-03-18 14:35:00,
2013-03-18 09:40:00,30.4,28.1,29.67,WNW,289,8.0,20.0,91,0.00,,,0.00,VWS V14.01,2013-03-18 14:40:00,
2013-03-18 09:45:00,30.1,27.8,29.67,WNW,288,7.0,20.0,91,0.00,,,0.00,VWS V14.01,2013-03-18 14:45:00,
2013-03-18 09:50:00,29.5,27.2,29.67,West,270,7.0,20.0,91,0.00,,,0.00,VWS V14.01,2013-03-18 14:50:00,
2013-03-18 09:55:00,28.7,26.4,29.68,WNW,297,8.0,20.0,91,0.00,,,0.00,VWS V14.01,2013-03-18 14:55:00,
2013-03-18 10:00:00,28.2,26.4,29.68,WNW,301,8.0,20.0,93,0.00,,,0.00,VWS V14.01,2013-03-18 15:00:00,
2013-03-18 10:05:00,27.9,26.1,29.68,NW,304,10.0,13.0,93,0.00,,,0.00,VWS V14.01,2013-03-18 15:05:00,
2013-03-18 10:10:00,27.6,25.8,29.68,NW,314,8.0,13.0,93,0.00,,,0.00,VWS V14.01,2013-03-18 15:10:00,
2013-03-18 10:15:00,27.3,24.2,29.69,NW,316,15.0,19.0,88,0.00,,,0.00,VWS V14.01,2013-03-18 15:15:00,
2013-03-18 10:20:00,27.1,23.8,29.69,NW,305,13.0,19.0,87,0.00,,,0.00,VWS V14.01,2013-03-18 15:20:00,
2013-03-18 10:25:00,27.1,23.8,29.69,NW,325,8.0,19.0,87,0.00,,,0.00,VWS V14.01,2013-03-18 15:25:00,
2013-03-18 10:30:00,27.0,23.9,29.69,NW,307,7.0,19.0,88,0.00,,,0.00,VWS V14.01,2013-03-18 15:30:00,
2013-03-18 10:35:00,26.5,22.9,29.69,NW,309,12.0,18.0,86,0.00,,,0.00,VWS V14.01,2013-03-18 15:35:00,
2013-03-18 10:40:00,26.0,22.1,29.70,WNW,283,18.0,18.0,85,0.00,,,0.00,VWS V14.01,2013-03-18 15:40:00,
2013-03-18 10:45:00,25.7,22.1,29.70,NW,311,10.0,18.0,86,0.00,,,0.00,VWS V14.01,2013-03-18 15:45:00,
2013-03-18 10:50:00,25.4,21.8,29.70,NNW,342,12.0,18.0,86,0.00,,,0.00,VWS V14.01,2013-03-18 15:50:00,
2013-03-18 10:55:00,24.8,20.7,29.70,WSW,252,16.0,18.0,84,0.00,,,0.00,VWS V14.01,2013-03-18 15:55:00,
2013-03-18 11:00:00,24.4,19.7,29.71,NW,315,7.0,18.0,82,0.00,,,0.00,VWS V14.01,2013-03-18 16:00:00,
2013-03-18 11:05:00,24.3,20.2,29.71,NW,326,8.0,15.0,84,0.00,,,0.00,VWS V14.01,2013-03-18 16:05:00,
2013-03-18 11:10:00,24.2,20.1,29.71,WNW,299,6.0,18.0,84,0.00,,,0.00,VWS V14.01,2013-03-18 16:10:00,
2013-03-18 11:15:00,24.1,20.0,29.71,WNW,297,11.0,18.0,84,0.00,,,0.00,VWS V14.01,2013-03-18 16:15:00,
2013-03-18 11:20:00,23.8,19.4,29.72,WNW,290,8.0,18.0,83,0.00,,,0.00,VWS V14.01,2013-03-18 16:20:00,
2013-03-18 11:25:00,23.7,19.0,29.72,WNW,303,12.0,18.0,82,0.00,,,0.00,VWS V14.01,2013-03-18 16:25:00,
2013-03-18 11:30:00,23.3,19.2,29.72,NW,309,6.0,20.0,84,0.00,,,0.00,VWS V14.01,2013-03-18 16:30:00,
2013-03-18 11:35:00,22.9,18.5,29.72,WNW,301,9.0,16.0,83,0.00,,,0.00,VWS V14.01,2013-03-18 16:35:00,
2013-03-18 11:40:00,22.7,18.0,29.72,WNW,287,12.0,18.0,82,0.00,,,0.00,VWS V14.01,2013-03-18 16:40:00,
2013-03-18 11:45:00,22.6,17.4,29.73,WNW,297,13.0,18.0,80,0.00,,,0.00,VWS V14.01,2013-03-18 16:45:00,
2013-03-18 11:50:00,22.2,17.3,29.73,NW,304,10.0,18.0,81,0.00,,,0.00,VWS V14.01,2013-03-18 16:50:00,
2013-03-18 11:55:00,22.3,17.1,29.73,NW,319,9.0,18.0,80,0.00,,,0.00,VWS V14.01,2013-03-18 16:55:00,
2013-03-18 12:00:00,22.5,17.0,29.73,NW,309,6.0,18.0,79,0.00,,,0.00,VWS V14.01,2013-03-18 17:00:00,
2013-03-18 12:05:00,22.5,16.7,29.73,NW,313,7.0,15.0,78,0.00,,OVC017,0.00,VWS V14.01,2013-03-18 17:05:00,
2013-03-18 12:10:00,22.7,17.2,29.73,WNW,302,4.0,18.0,79,0.00,,OVC017,0.00,VWS V14.01,2013-03-18 17:10:00,
2013-03-18 12:15:00,22.8,16.7,29.73,NW,309,8.0,18.0,77,0.00,,,0.00,VWS V14.01,2013-03-18 17:15:00,
2013-03-18 12:20:00,22.7,16.6,29.73,NNW,327,11.0,18.0,77,0.00,,,0.00,VWS V14.01,2013-03-18 17:20:00,
2013-03-18 12:25:00,22.6,17.4,29.73,NW,311,8.0,18.0,80,0.00,,,0.00,VWS V14.01,2013-03-18 17:25:00,
2013-03-18 12:30:00,22.5,18.4,29.73,West,271,9.0,18.0,84,0.00,,,0.00,VWS V14.01,2013-03-18 17:30:00,
2013-03-18 12:35:00,22.1,17.2,29.73,NW,308,16.0,23.0,81,0.00,,,0.00,VWS V14.01,2013-03-18 17:35:00,
2013-03-18 12:40:00,22.0,17.4,29.74,NW,313,20.0,23.0,82,0.00,,,0.00,VWS V14.01,2013-03-18 17:40:00,
2013-03-18 12:45:00,22.2,17.3,29.74,NW,317,13.0,23.0,81,0.00,,,0.00,VWS V14.01,2013-03-18 17:45:00,
2013-03-18 12:50:00,22.5,17.0,29.73,WNW,285,17.0,23.0,79,0.00,,,0.00,VWS V14.01,2013-03-18 17:50:00,
2013-03-18 12:55:00,22.3,16.8,29.74,WNW,288,8.0,23.0,79,0.00,,,0.00,VWS V14.01,2013-03-18 17:55:00,
2013-03-18 13:00:00,22.3,17.1,29.74,WNW,290,13.0,23.0,80,0.00,,,0.00,VWS V14.01,2013-03-18 18:00:00,
2013-03-18 13:05:00,22.3,17.1,29.74,WNW,295,15.0,17.0,80,0.00,,,0.00,VWS V14.01,2013-03-18 18:05:00,
2013-03-18 13:10:00,22.0,16.5,29.75,NNW,331,8.0,18.0,79,0.00,,,0.00,VWS V14.01,2013-03-18 18:10:00,
2013-03-18 13:15:00,22.0,15.9,29.75,NW,311,12.0,20.0,77,0.00,,,0.00,VWS V14.01,2013-03-18 18:15:00,
2013-03-18 13:20:00,22.3,15.9,29.75,WNW,301,12.0,20.0,76,0.00,,,0.00,VWS V14.01,2013-03-18 18:20:00,
2013-03-18 13:25:00,22.7,16.3,29.75,NNW,341,4.0,20.0,76,0.00,,,0.00,VWS V14.01,2013-03-18 18:25:00,
2013-03-18 13:30:00,22.8,17.0,29.75,WNW,300,11.0,20.0,78,0.00,,,0.00,VWS V14.01,2013-03-18 18:30:00,
2013-03-18 13:35:00,22.3,17.6,29.75,West,281,13.0,18.0,82,0.00,,,0.00,VWS V14.01,2013-03-18 18:35:00,
2013-03-18 13:40:00,21.7,15.9,29.75,NW,305,7.0,20.0,78,0.00,,,0.00,VWS V14.01,2013-03-18 18:40:00,
2013-03-18 13:45:00,21.8,15.4,29.75,West,278,12.0,22.0,76,0.00,,,0.00,VWS V14.01,2013-03-18 18:45:00,
2013-03-18 13:50:00,21.9,16.1,29.75,WNW,298,11.0,22.0,78,0.00,,,0.00,VWS V14.01,2013-03-18 18:50:00,
2013-03-18 13:55:00,21.5,15.1,29.76,WNW,297,16.0,23.0,76,0.00,,,0.00,VWS V14.01,2013-03-18 18:55:00,
2013-03-18 14:00:00,21.3,14.6,29.75,NW,306,8.0,23.0,75,0.00,,,0.00,VWS V14.01,2013-03-18 19:00:00,
2013-03-18 14:04:00,21.5,15.4,29.76,WNW,294,12.0,20.0,77,0.00,,,0.00,VWS V14.01,2013-03-18 19:04:00,
2013-03-18 14:09:00,21.7,15.9,29.76,WNW,293,14.0,20.0,78,0.00,,,0.00,VWS V14.01,2013-03-18 19:09:00,
2013-03-18 14:14:00,21.7,14.7,29.76,West,276,15.0,24.0,74,0.00,,,0.00,VWS V14.01,2013-03-18 19:14:00,
2013-03-18 14:19:00,21.9,15.2,29.76,WNW,302,17.0,24.0,75,0.00,,,0.00,VWS V14.01,2013-03-18 19:19:00,
2013-03-18 14:24:00,21.6,15.2,29.75,NW,316,7.0,24.0,76,0.00,,,0.00,VWS V14.01,2013-03-18 19:24:00,
2013-03-18 14:29:00,21.7,15.6,29.76,WNW,302,14.0,24.0,77,0.00,,,0.00,VWS V14.01,2013-03-18 19:29:00,
2013-03-18 14:34:00,21.8,15.4,29.76,NW,311,14.0,20.0,76,0.00,,,0.00,VWS V14.01,2013-03-18 19:34:00,
2013-03-18 14:39:00,21.4,14.7,29.76,West,276,17.0,28.0,75,0.00,,,0.00,VWS V14.01,2013-03-18 19:39:00,
2013-03-18 14:44:00,21.5,14.8,29.76,NW,315,14.0,28.0,75,0.00,,,0.00,VWS V14.01,2013-03-18 19:44:00,
2013-03-18 14:49:00,21.2,14.8,29.76,WNW,287,11.0,28.0,76,0.00,,,0.00,VWS V14.01,2013-03-18 19:49:00,
2013-03-18 14:54:00,21.1,15.6,29.76,WNW,295,8.0,28.0,79,0.00,,,0.00,VWS V14.01,2013-03-18 19:54:00,
2013-03-18 14:59:00,21.1,15.3,29.76,WNW,293,15.0,28.0,78,0.00,,,0.00,VWS V14.01,2013-03-18 19:59:00,
2013-03-18 15:04:00,21.1,15.3,29.76,WNW,300,11.0,19.0,78,0.00,,,0.00,VWS V14.01,2013-03-18 20:04:00,
2013-03-18 15:09:00,20.7,15.2,29.76,NW,315,7.0,19.0,79,0.00,,,0.00,VWS V14.01,2013-03-18 20:09:00,
2013-03-18 15:14:00,20.5,14.4,29.76,NW,312,10.0,19.0,77,0.00,,,0.00,VWS V14.01,2013-03-18 20:14:00,
2013-03-18 15:19:00,20.6,14.2,29.76,NW,314,10.0,21.0,76,0.00,,,0.00,VWS V14.01,2013-03-18 20:19:00,
2013-03-18 15:24:00,21.1,14.7,29.77,WNW,292,14.0,21.0,76,0.00,,,0.00,VWS V14.01,2013-03-18 20:24:00,
2013-03-18 15:29:00,20.7,14.6,29.77,NNW,329,14.0,21.0,77,0.00,,,0.00,VWS V14.01,2013-03-18 20:29:00,
2013-03-18 15:34:00,20.5,15.9,29.77,NW,304,9.0,19.0,82,0.00,,,0.00,VWS V14.01,2013-03-18 20:34:00,
2013-03-18 15:39:00,20.8,14.7,29.77,WNW,301,6.0,19.0,77,0.00,,OVC032,0.00,VWS V14.01,2013-03-18 20:39:00,
2013-03-18 15:44:00,20.7,14.4,29.77,WNW,291,13.0,21.0,76,0.00,,OVC032,0.00,VWS V14.01,2013-03-18 20:44:00,
2013-03-18 15:49:00,20.9,14.8,29.78,WNW,290,11.0,21.0,77,0.00,,OVC032,0.00,VWS V14.01,2013-03-18 20:49:00,
2013-03-18 15:54:00,20.4,14.4,29.78,WNW,296,12.0,21.0,77,0.00,,,0.00,VWS V14.01,2013-03-18 20:54:00,
2013-03-18 15:59:00,20.5,14.4,29.78,NW,308,7.0,21.0,77,0.00,,,0.00,VWS V14.01,2013-03-18 20:59:00,
2013-03-18 16:04:00,20.8,14.4,29.78,WNW,295,8.0,20.0,76,0.00,,,0.00,VWS V14.01,2013-03-18 21:04:00,
2013-03-18 16:09:00,20.7,13.4,29.78,WNW,295,10.0,22.0,73,0.00,,,0.00,VWS V14.01,2013-03-18 21:09:00,
2013-03-18 16:14:00,20.6,13.6,29.79,WNW,302,13.0,22.0,74,0.00,,,0.00,VWS V14.01,2013-03-18 21:14:00,
2013-03-18 16:19:00,20.4,14.4,29.79,WNW,293,19.0,22.0,77,0.00,,,0.00,VWS V14.01,2013-03-18 21:19:00,
2013-03-18 16:24:00,20.4,14.6,29.79,WNW,297,13.0,22.0,78,0.00,,,0.00,VWS V14.01,2013-03-18 21:24:00,
2013-03-18 16:29:00,20.1,14.4,29.79,WNW,294,11.0,22.0,78,0.00,,,0.00,VWS V14.01,2013-03-18 21:29:00,
2013-03-18 16:34:00,19.5,15.2,29.80,WNW,294,6.0,20.0,83,0.00,,,0.00,VWS V14.01,2013-03-18 21:34:00,
2013-03-18 16:39:00,19.3,15.3,29.80,WSW,257,7.0,20.0,84,0.00,,,0.00,VWS V14.01,2013-03-18 21:39:00,
2013-03-18 16:44:00,19.4,14.8,29.80,West,266,9.0,20.0,82,0.00,,,0.00,VWS V14.01,2013-03-18 21:44:00,
2013-03-18 16:50:00,19.3,15.0,29.80,WNW,295,16.0,22.0,83,0.00,,,0.00,VWS V14.01,2013-03-18 21:50:00,
2013-03-18 16:55:00,19.8,15.2,29.80,NW,315,10.0,22.0,82,0.00,,,0.00,VWS V14.01,2013-03-18 21:55:00,
2013-03-18 17:00:00,19.9,14.4,29.80,West,269,8.0,23.0,79,0.00,,,0.00,VWS V14.01,2013-03-18 22:00:00,
2013-03-18 17:05:00,19.4,14.5,29.81,WNW,294,23.0,23.0,81,0.00,,,0.00,VWS V14.01,2013-03-18 22:05:00,
2013-03-18 17:10:00,19.2,14.6,29.81,NW,311,9.0,23.0,82,0.00,,,0.00,VWS V14.01,2013-03-18 22:10:00,
2013-03-18 17:15:00,19.1,14.2,29.81,WNW,297,11.0,23.0,81,0.00,,,0.00,VWS V14.01,2013-03-18 22:15:00,
2013-03-18 17:20:00,19.2,14.3,29.81,WNW,301,7.0,23.0,81,0.00,,,0.00,VWS V14.01,2013-03-18 22:20:00,
2013-03-18 17:25:00,19.2,13.8,29.81,NW,319,12.0,23.0,79,0.00,,,0.00,VWS V14.01,2013-03-18 22:25:00,
2013-03-18 17:30:00,19.0,14.4,29.81,WNW,294,11.0,23.0,82,0.00,,,0.00,VWS V14.01,2013-03-18 22:30:00,
2013-03-18 17:35:00,18.6,14.3,29.82,NW,308,7.0,20.0,83,0.00,,,0.00,VWS V14.01,2013-03-18 22:35:00,
2013-03-18 17:40:00,18.5,13.6,29.82,WNW,297,10.0,20.0,81,0.00,,,0.00,VWS V14.01,2013-03-18 22:40:00,
2013-03-18 17:45:00,18.5,13.4,29.82,WNW,293,5.0,20.0,80,0.00,,,0.00,VWS V14.01,2013-03-18 22:45:00,
2013-03-18 17:50:00,18.8,13.4,29.82,West,270,12.0,23.0,79,0.00,,,0.00,VWS V14.01,2013-03-18 22:50:00,
2013-03-18 17:55:00,18.8,13.7,29.82,NW,317,11.0,23.0,80,0.00,,,0.00,VWS V14.01,2013-03-18 22:55:00,
2013-03-18 18:00:00,18.6,12.9,29.82,WNW,285,11.0,23.0,78,0.00,,,0.00,VWS V14.01,2013-03-18 23:00:00,
2013-03-18 18:05:00,18.3,13.7,29.82,NW,305,8.0,18.0,82,0.00,,,0.00,VWS V14.01,2013-03-18 23:05:00,
2013-03-18 18:10:00,17.8,13.8,29.83,West,281,7.0,20.0,84,0.00,,,0.00,VWS V14.01,2013-03-18 23:10:00,
2013-03-18 18:15:00,17.5,13.2,29.83,WNW,303,11.0,20.0,83,0.00,,,0.00,VWS V14.01,2013-03-18 23:15:00,
2013-03-18 18:20:00,17.4,13.1,29.83,NW,312,8.0,20.0,83,0.00,,,0.00,VWS V14.01,2013-03-18 23:20:00,
2013-03-18 18:25:00,17.3,13.3,29.83,WNW,293,8.0,20.0,84,0.00,,,0.00,VWS V14.01,2013-03-18 23:25:00,
2013-03-18 18:30:00,17.5,13.5,29.83,WNW,295,8.0,22.0,84,0.00,,,0.00,VWS V14.01,2013-03-18 23:30:00,
2013-03-18 18:35:00,17.7,12.9,29.83,West,280,11.0,18.0,81,0.00,,,0.00,VWS V14.01,2013-03-18 23:35:00,
2013-03-18 18:39:00,17.6,12.8,29.83,NW,309,8.0,19.0,81,0.00,,,0.00,VWS V14.01,2013-03-18 23:39:00,
2013-03-18 18:45:00,17.4,12.3,29.84,NW,322,8.0,23.0,80,0.00,,,0.00,VWS V14.01,2013-03-18 23:45:00,
2013-03-18 18:50:00,17.1,12.6,29.84,NW,304,8.0,23.0,82,0.00,,,0.00,VWS V14.01,2013-03-18 23:50:00,
2013-03-18 18:54:00,17.4,13.1,29.84,NW,326,8.0,23.0,83,0.00,,,0.00,VWS V14.01,2013-03-18 23:54:00,
2013-03-18 18:59:00,17.2,12.9,29.84,WNW,293,10.0,23.0,83,0.00,,,0.00,VWS V14.01,2013-03-18 23:59:00,
2013-03-18 19:04:00,17.0,12.5,29.84,WNW,283,7.0,18.0,82,0.00,,,0.00,VWS V14.01,2013-03-19 00:04:00,
2013-03-18 19:10:00,16.8,12.5,29.85,WNW,302,9.0,18.0,83,0.00,,,0.00,VWS V14.01,2013-03-19 00:10:00,
2013-03-18 19:14:00,16.7,11.9,29.85,NW,321,12.0,20.0,81,0.00,,,0.00,VWS V14.01,2013-03-19 00:14:00,
2013-03-18 19:19:00,16.6,11.5,29.85,NW,305,8.0,20.0,80,0.00,,,0.00,VWS V14.01,2013-03-19 00:19:00,
2013-03-18 19:25:00,16.6,11.5,29.85,NW,316,8.0,20.0,80,0.00,,SCT019,0.00,VWS V14.01,2013-03-19 00:25:00,
2013-03-18 19:30:00,16.6,11.5,29.85,WNW,300,7.0,20.0,80,0.00,,SCT019,0.00,VWS V14.01,2013-03-19 00:30:00,
2013-03-18 19:35:00,16.6,11.2,29.86,NW,313,7.0,19.0,79,0.00,,SCT019,0.00,VWS V14.01,2013-03-19 00:35:00,
2013-03-18 19:40:00,16.5,11.1,29.86,WNW,293,7.0,19.0,79,0.00,,SCT019,0.00,VWS V14.01,2013-03-19 00:40:00,
2013-03-18 19:44:00,16.5,11.1,29.86,WNW,302,7.0,19.0,79,0.00,,SCT019,0.00,VWS V14.01,2013-03-19 00:44:00,
2013-03-18 19:50:00,16.4,10.8,29.87,WNW,302,13.0,19.0,78,0.00,,SCT019,0.00,VWS V14.01,2013-03-19 00:50:00,
2013-03-18 19:54:00,16.3,10.7,29.87,NW,307,6.0,19.0,78,0.00,,SCT019,0.00,VWS V14.01,2013-03-19 00:54:00,
2013-03-18 19:59:00,16.3,10.9,29.87,WNW,301,7.0,19.0,79,0.00,,SCT021,0.00,VWS V14.01,2013-03-19 00:59:00,
2013-03-18 20:04:00,16.3,10.9,29.87,WNW,293,9.0,14.0,79,0.00,,SCT021,0.00,VWS V14.01,2013-03-19 01:04:00,
2013-03-18 20:09:00,16.2,10.8,29.87,WNW,301,7.0,16.0,79,0.00,,SCT021,0.00,VWS V14.01,2013-03-19 01:09:00,
2013-03-18 20:14:00,16.1,11.0,29.87,NW,317,5.0,16.0,80,0.00,,SCT021,0.00,VWS V14.01,2013-03-19 01:14:00,
2013-03-18 20:19:00,16.0,10.9,29.88,NW,305,11.0,17.0,80,0.00,,SCT021,0.00,VWS V14.01,2013-03-19 01:19:00,
2013-03-18 20:24:00,16.0,10.9,29.88,West,262,8.0,18.0,80,0.00,,SCT021,0.00,VWS V14.01,2013-03-19 01:24:00,
2013-03-18 20:29:00,16.1,11.3,29.88,NW,321,12.0,18.0,81,0.00,,SCT021,0.00,VWS V14.01,2013-03-19 01:29:00,
2013-03-18 20:34:00,16.1,11.3,29.88,WNW,297,14.0,16.0,81,0.00,,SCT021,0.00,VWS V14.01,2013-03-19 01:34:00,
2013-03-18 20:39:00,16.0,10.9,29.88,WNW,297,11.0,17.0,80,0.00,,SCT021,0.00,VWS V14.01,2013-03-19 01:39:00,
2013-03-18 20:44:00,15.8,10.5,29.89,NW,319,10.0,17.0,79,0.00,,SCT021,0.00,VWS V14.01,2013-03-19 01:44:00,
2013-03-18 20:49:00,15.8,10.5,29.89,NW,318,9.0,21.0,79,0.00,,,0.00,VWS V14.01,2013-03-19 01:49:00,
2013-03-18 20:54:00,15.7,10.4,29.89,NW,311,9.0,21.0,79,0.00,,,0.00,VWS V14.01,2013-03-19 01:54:00,
2013-03-18 20:59:00,15.6,10.3,29.90,WNW,291,7.0,21.0,79,0.00,,,0.00,VWS V14.01,2013-03-19 01:59:00,
2013-03-18 21:04:00,15.5,10.4,29.90,WNW,301,10.0,16.0,80,0.00,,,0.00,VWS V14.01,2013-03-19 02:04:00,
2013-03-18 21:09:00,15.5,10.4,29.90,NW,319,8.0,16.0,80,0.00,,,0.00,VWS V14.01,2013-03-19 02:09:00,
2013-03-18 21:14:00,15.6,10.5,29.90,West,281,10.0,16.0,80,0.00,,,0.00,VWS V14.01,2013-03-19 02:14:00,
2013-03-18 21:19:00,15.6,10.8,29.90,NNW,332,6.0,16.0,81,0.00,,,0.00,VWS V14.01,2013-03-19 02:19:00,
2013-03-18 21:24:00,15.5,10.4,29.90,NW,321,5.0,16.0,80,0.00,,,0.00,VWS V14.01,2013-03-19 02:24:00,
2013-03-18 21:29:00,15.4,10.1,29.90,North,349,4.0,17.0,79,0.00,,,0.00,VWS V14.01,2013-03-19 02:29:00,
2013-03-18 21:34:00,15.3,10.0,29.91,NNW,332,7.0,14.0,79,0.00,,,0.00,VWS V14.01,2013-03-19 02:34:00,
2013-03-18 21:39:00,15.3,10.0,29.91,NNW,340,7.0,18.0,79,0.00,,,0.00,VWS V14.01,2013-03-19 02:39:00,
2013-03-18 21:44:00,15.3,10.2,29.91,NW,326,12.0,18.0,80,0.00,,,0.00,VWS V14.01,2013-03-19 02:44:00,
2013-03-18 21:49:00,15.3,10.5,29.91,WNW,288,15.0,18.0,81,0.00,,,0.00,VWS V14.01,2013-03-19 02:49:00,
2013-03-18 21:54:00,15.1,10.3,29.92,NW,319,4.0,20.0,81,0.00,,,0.00,VWS V14.01,2013-03-19 02:54:00,
2013-03-18 21:59:00,15.0,10.5,29.92,WNW,298,10.0,20.0,82,0.00,,,0.00,VWS V14.01,2013-03-19 02:59:00,
2013-03-18 22:04:00,14.9,10.1,29.92,NW,317,7.0,17.0,81,0.00,,,0.00,VWS V14.01,2013-03-19 03:04:00,
2013-03-18 22:09:00,14.9,9.9,29.92,NW,307,16.0,17.0,80,0.00,,OVC018,0.00,VWS V14.01,2013-03-19 03:09:00,
2013-03-18 22:14:00,14.9,9.6,29.92,WNW,298,8.0,18.0,79,0.00,,OVC018,0.00,VWS V14.01,2013-03-19 03:14:00,
2013-03-18 22:19:00,14.8,9.5,29.92,WNW,293,9.0,18.0,79,0.00,,OVC018,0.00,VWS V14.01,2013-03-19 03:19:00,
2013-03-18 22:24:00,14.7,9.4,29.93,NW,309,10.0,18.0,79,0.00,,OVC018,0.00,VWS V14.01,2013-03-19 03:24:00,
2013-03-18 22:29:00,14.7,9.7,29.93,WNW,291,9.0,18.0,80,0.00,,OVC018,0.00,VWS V14.01,2013-03-19 03:29:00,
2013-03-18 22:34:00,14.6,9.6,29.93,WNW,300,5.0,17.0,80,0.00,,OVC018,0.00,VWS V14.01,2013-03-19 03:34:00,
2013-03-18 22:39:00,14.4,9.4,29.93,WNW,293,6.0,17.0,80,0.00,,OVC018,0.00,VWS V14.01,2013-03-19 03:39:00,
2013-03-18 22:44:00,14.4,9.6,29.93,NW,308,10.0,17.0,81,0.00,,OVC018,0.00,VWS V14.01,2013-03-19 03:44:00,
2013-03-18 22:49:00,14.4,9.1,29.93,NW,322,7.0,17.0,79,0.00,,OVC018,0.00,VWS V14.01,2013-03-19 03:49:00,
2013-03-18 22:54:00,14.3,9.3,29.93,NW,305,7.0,17.0,80,0.00,,OVC018,0.00,VWS V14.01,2013-03-19 03:54:00,
2013-03-18 22:59:00,14.2,9.2,29.93,WNW,302,10.0,17.0,80,0.00,,OVC017,0.00,VWS V14.01,2013-03-19 03:59:00,
2013-03-18 23:00:00,14.2,9.2,29.93,WNW,301,12.0,17.0,80,0.00,,OVC017,0.00,VWS V14.01,2013-03-19 04:00:00,
2013-03-18 23:01:00,14.2,9.2,29.93,NW,304,12.0,17.0,80,0.00,,OVC017,0.00,VWS V14.01,2013-03-19 04:01:00,
2013-03-18 23:05:00,14.1,9.1,29.93,NW,304,11.0,14.0,80,0.00,,OVC017,0.00,VWS V14.01,2013-03-19 04:05:00,
2013-03-18 23:11:00,14.0,8.7,29.93,WNW,295,7.0,16.0,79,0.00,,OVC017,0.00,VWS V14.01,2013-03-19 04:11:00,
2013-03-18 23:16:00,13.9,8.9,29.93,NW,304,6.0,17.0,80,0.00,,OVC017,0.00,VWS V14.01,2013-03-19 04:16:00,
2013-03-18 23:21:00,13.8,8.5,29.93,WNW,295,7.0,17.0,79,0.00,,OVC017,0.00,VWS V14.01,2013-03-19 04:21:00,
2013-03-18 23:26:00,13.8,8.5,29.93,NNW,345,7.0,17.0,79,0.00,,OVC017,0.00,VWS V14.01,2013-03-19 04:26:00,
2013-03-18 23:31:00,13.7,8.4,29.93,WNW,303,7.0,18.0,79,0.00,,OVC017,0.00,VWS V14.01,2013-03-19 04:31:00,
2013-03-18 23:35:00,13.6,8.3,29.93,West,271,9.0,19.0,79,0.00,,OVC017,0.00,VWS V14.01,2013-03-19 04:35:00,
2013-03-18 23:40:00,13.5,8.2,29.93,WNW,293,10.0,19.0,79,0.00,,OVC017,0.00,VWS V14.01,2013-03-19 04:40:00,
2013-03-18 23:45:00,13.4,8.1,29.93,NW,319,6.0,19.0,79,0.00,,OVC017,0.00,VWS V14.01,2013-03-19 04:45:00,
2013-03-18 23:50:00,13.3,8.0,29.93,WNW,287,8.0,19.0,79,0.00,,OVC017,0.00,VWS V14.01,2013-03-19 04:50:00,
2013-03-18 23:55:00,13.3,8.0,29.93,NNW,339,10.0,19.0,79,0.00,,OVC017,0.00,VWS V14.01,2013-03-19 04:55:00,